�������l�o���
Date,Time,MP-1(��Sv/h),MP-2(��Sv/h),MP-3(��Sv/h),MP-4(��Sv/h),MP-5(��Sv/h),MP-6(��Sv/h),MP-7(��Sv/h),MP-8(��Sv/h),����,����(m/s),���J
2023/11/22,00:00,0.518,0.785,0.489,0.983,0.705,0.315,0.566,0.529,�쐼,3.5,��
2023/11/22,00:10,0.516,0.783,0.486,0.983,0.703,0.315,0.567,0.526,�쐼,2.6,��
2023/11/22,00:20,0.517,0.786,0.487,0.984,0.704,0.316,0.565,0.527,�쐼,3.2,��
2023/11/22,00:30,0.518,0.783,0.488,0.985,0.705,0.315,0.565,0.526,�쐼,4.0,��
2023/11/22,00:40,0.518,0.783,0.487,0.984,0.705,0.316,0.564,0.528,�쐼,3.3,��
2023/11/22,00:50,0.517,0.784,0.487,0.984,0.705,0.314,0.565,0.526,�쐼,2.8,��
2023/11/22,01:00,0.518,0.785,0.486,0.981,0.705,0.314,0.565,0.527,�쐼,2.0,��
2023/11/22,01:10,0.517,0.787,0.489,0.983,0.703,0.316,0.566,0.527,�쐼,1.2,��
2023/11/22,01:20,0.519,0.783,0.487,0.983,0.705,0.315,0.566,0.525,�쐼,0.6,��
2023/11/22,01:30,0.518,0.786,0.488,0.982,0.703,0.315,0.564,0.527,���쐼,0.9,��
2023/11/22,01:40,0.518,0.786,0.488,0.982,0.707,0.316,0.564,0.527,-,CALM,��
2023/11/22,01:50,0.517,0.785,0.489,0.981,0.704,0.315,0.564,0.528,�쐼,0.6,��
2023/11/22,02:00,0.516,0.785,0.486,0.982,0.705,0.315,0.564,0.526,���쐼,0.6,��
2023/11/22,02:10,0.519,0.784,0.487,0.982,0.704,0.315,0.564,0.527,���k��,0.6,��
2023/11/22,02:20,0.516,0.784,0.486,0.981,0.705,0.316,0.564,0.526,�k�k��,0.6,��
2023/11/22,02:30,0.517,0.783,0.488,0.985,0.705,0.315,0.563,0.525,-,CALM,��
2023/11/22,02:40,0.517,0.785,0.487,0.982,0.705,0.316,0.564,0.528,��쓌,0.8,��
2023/11/22,02:50,0.519,0.784,0.488,0.981,0.704,0.316,0.564,0.526,��,0.6,��
2023/11/22,03:00,0.516,0.784,0.487,0.982,0.704,0.314,0.565,0.526,���k��,1.5,��
2023/11/22,03:10,0.518,0.785,0.488,0.981,0.705,0.314,0.563,0.525,�k�k��,1.1,��
2023/11/22,03:20,0.517,0.783,0.486,0.982,0.704,0.315,0.563,0.526,�k��,1.5,��
2023/11/22,03:30,0.517,0.786,0.487,0.982,0.704,0.315,0.564,0.526,�k��,1.5,��
2023/11/22,03:40,0.518,0.784,0.486,0.983,0.704,0.314,0.565,0.527,�k�k��,1.7,��
2023/11/22,03:50,0.519,0.785,0.486,0.983,0.705,0.315,0.565,0.526,�k,2.2,��
2023/11/22,04:00,0.518,0.788,0.489,0.983,0.704,0.315,0.562,0.525,�k�k��,2.3,��
2023/11/22,04:10,0.519,0.785,0.488,0.984,0.704,0.315,0.564,0.526,�k�k��,2.3,��
2023/11/22,04:20,0.517,0.785,0.488,0.982,0.704,0.315,0.564,0.526,�k,2.3,��
2023/11/22,04:30,0.518,0.787,0.488,0.982,0.704,0.314,0.563,0.524,�k,2.3,��
2023/11/22,04:40,0.516,0.785,0.487,0.983,0.706,0.315,0.565,0.526,�k,2.0,��
2023/11/22,04:50,0.516,0.785,0.488,0.982,0.705,0.315,0.563,0.526,�k,2.6,��
2023/11/22,05:00,0.518,0.786,0.488,0.982,0.704,0.314,0.564,0.526,�k,2.8,��
2023/11/22,05:10,0.516,0.787,0.486,0.984,0.704,0.315,0.563,0.526,�k�k��,2.9,��
2023/11/22,05:20,0.517,0.786,0.486,0.985,0.706,0.315,0.565,0.526,�k�k��,2.2,��
2023/11/22,05:30,0.517,0.785,0.488,0.982,0.704,0.316,0.564,0.526,�k��,2.0,��
2023/11/22,05:40,0.517,0.784,0.488,0.982,0.703,0.313,0.562,0.525,�k�k��,2.6,��
2023/11/22,05:50,0.517,0.785,0.488,0.981,0.704,0.314,0.563,0.526,�k�k��,1.7,��
2023/11/22,06:00,0.517,0.784,0.487,0.981,0.705,0.314,0.563,0.525,�k��,1.5,��
2023/11/22,06:10,0.516,0.784,0.487,0.981,0.705,0.316,0.563,0.527,���k��,1.4,��
2023/11/22,06:20,0.516,0.785,0.486,0.981,0.704,0.314,0.562,0.525,���k��,1.5,��
2023/11/22,06:30,0.516,0.787,0.487,0.980,0.705,0.314,0.562,0.525,�k��,1.7,��
2023/11/22,06:40,0.518,0.784,0.487,0.985,0.702,0.314,0.563,0.526,�k�k��,2.0,��
2023/11/22,06:50,0.517,0.784,0.487,0.982,0.704,0.315,0.562,0.526,�k�k��,2.0,��
2023/11/22,07:00,0.515,0.784,0.488,0.983,0.705,0.315,0.562,0.526,�k,2.0,��
2023/11/22,07:10,0.518,0.786,0.487,0.982,0.705,0.314,0.563,0.525,�k,2.3,��
2023/11/22,07:20,0.515,0.783,0.488,0.984,0.704,0.314,0.564,0.526,�k,2.9,��
2023/11/22,07:30,0.518,0.786,0.488,0.982,0.705,0.314,0.563,0.526,�k�k��,3.1,��
2023/11/22,07:40,0.517,0.783,0.488,0.981,0.704,0.314,0.563,0.527,�k�k��,2.5,��
2023/11/22,07:50,0.518,0.787,0.488,0.981,0.704,0.313,0.564,0.526,�k��,1.5,��
2023/11/22,08:00,0.518,0.784,0.485,0.983,0.705,0.315,0.564,0.525,�k��,0.8,��
2023/11/22,08:10,0.518,0.786,0.487,0.982,0.704,0.315,0.566,0.527,���쐼,0.9,��
2023/11/22,08:20,0.517,0.786,0.483,0.984,0.702,0.315,0.565,0.526,��,0.9,��
2023/11/22,08:30,0.516,0.785,0.485,0.983,0.704,0.314,0.566,0.527,�k��,2.3,��
2023/11/22,08:40,0.518,0.786,0.485,0.982,0.704,0.315,0.564,0.526,�k��,2.6,��
2023/11/22,08:50,0.517,0.785,0.485,0.985,0.704,0.315,0.566,0.526,�k��,2.3,��
2023/11/22,09:00,0.519,0.784,0.487,0.984,0.703,0.315,0.565,0.527,�k��,2.0,��
2023/11/22,09:10,0.518,0.785,0.488,0.985,0.702,0.315,0.564,0.527,�k,2.3,��
2023/11/22,09:20,0.519,0.783,0.489,0.984,0.703,0.316,0.562,0.525,�k,2.2,��
2023/11/22,09:30,0.516,0.784,0.488,0.985,0.705,0.315,0.563,0.527,�k,2.0,��
2023/11/22,09:40,0.517,0.786,0.489,0.985,0.705,0.316,0.565,0.527,�k��,2.3,��
2023/11/22,09:50,0.519,0.785,0.489,0.982,0.706,0.315,0.564,0.527,�k�k��,1.9,��
2023/11/22,10:00,0.517,0.783,0.488,0.984,0.706,0.315,0.562,0.527,�k�k��,1.7,��
2023/11/22,10:10,0.517,0.783,0.489,0.985,0.705,0.315,0.564,0.527,�k,3.1,��
2023/11/22,10:20,0.517,0.784,0.489,0.985,0.703,0.315,0.565,0.526,�k,3.5,��
2023/11/22,10:30,0.517,0.786,0.488,0.984,0.702,0.314,0.564,0.528,�k,3.2,��
2023/11/22,10:40,0.518,0.783,0.488,0.984,0.705,0.314,0.563,0.527,�k�k��,4.2,��
2023/11/22,10:50,0.517,0.784,0.487,0.985,0.702,0.313,0.564,0.527,�k,3.7,��
2023/11/22,11:00,0.518,0.783,0.487,0.983,0.703,0.313,0.563,0.527,�k�k��,3.4,��
2023/11/22,11:10,0.516,0.784,0.487,0.982,0.702,0.313,0.563,0.528,�k�k��,3.2,��
2023/11/22,11:20,0.517,0.785,0.487,0.984,0.705,0.313,0.564,0.527,�k�k��,3.6,��
2023/11/22,11:30,0.516,0.784,0.487,0.982,0.704,0.313,0.563,0.528,�k��,3.9,��
2023/11/22,11:40,0.516,0.783,0.487,0.984,0.705,0.313,0.564,0.527,�k�k��,3.3,��
2023/11/22,11:50,0.517,0.785,0.487,0.984,0.705,0.313,0.563,0.528,�k��,3.6,��
2023/11/22,12:00,0.517,0.784,0.488,0.985,0.704,0.315,0.564,0.530,�k��,3.8,��
2023/11/22,12:10,0.519,0.787,0.488,0.982,0.703,0.314,0.563,0.527,�k�k��,3.3,��
2023/11/22,12:20,0.517,0.785,0.489,0.986,0.705,0.315,0.563,0.526,�k��,3.7,��
2023/11/22,12:30,0.517,0.785,0.489,0.984,0.705,0.316,0.563,0.525,�k�k��,3.9,��
2023/11/22,12:40,0.518,0.784,0.488,0.985,0.704,0.316,0.563,0.525,�k�k��,3.4,��
2023/11/22,12:50,0.517,0.781,0.486,0.983,0.707,0.314,0.563,0.527,�k�k��,3.1,��
2023/11/22,13:00,0.517,0.786,0.488,0.985,0.703,0.316,0.564,0.525,�k�k��,3.7,��
2023/11/22,13:10,0.517,0.784,0.486,0.984,0.705,0.316,0.565,0.524,�k��,2.9,��
2023/11/22,13:20,0.517,0.785,0.487,0.985,0.704,0.315,0.564,0.524,���k��,2.6,��
2023/11/22,13:30,0.518,0.787,0.487,0.985,0.704,0.314,0.565,0.527,���k��,2.6,��
2023/11/22,13:40,0.516,0.784,0.488,0.984,0.705,0.316,0.563,0.526,���k��,1.9,��
2023/11/22,13:50,0.516,0.786,0.488,0.986,0.705,0.316,0.564,0.527,���k��,1.9,��
2023/11/22,14:00,0.515,0.785,0.487,0.983,0.703,0.314,0.565,0.524,�k��,2.0,��
2023/11/22,14:10,0.518,0.786,0.488,0.986,0.706,0.314,0.566,0.525,��,2.0,��
2023/11/22,14:20,0.518,0.786,0.488,0.985,0.703,0.315,0.566,0.525,���쓌,1.9,��
2023/11/22,14:30,0.516,0.786,0.488,0.984,0.703,0.315,0.564,0.524,���쓌,1.5,��
2023/11/22,14:40,0.518,0.784,0.487,0.982,0.705,0.315,0.566,0.526,���쓌,1.9,��
2023/11/22,14:50,0.517,0.784,0.488,0.984,0.707,0.315,0.564,0.526,�쓌,1.7,��
2023/11/22,15:00,0.518,0.784,0.488,0.986,0.705,0.315,0.564,0.526,���쓌,1.9,��
2023/11/22,15:10,0.518,0.786,0.486,0.984,0.703,0.313,0.563,0.525,���쓌,1.7,��
2023/11/22,15:20,0.517,0.788,0.487,0.985,0.705,0.315,0.566,0.525,���쓌,2.0,��
2023/11/22,15:30,0.517,0.789,0.486,0.983,0.704,0.317,0.565,0.527,���쓌,1.9,��
2023/11/22,15:40,0.517,0.790,0.486,0.984,0.705,0.316,0.564,0.530,�쓌,2.2,��
2023/11/22,15:50,0.516,0.790,0.489,0.982,0.704,0.316,0.564,0.528,���쓌,1.5,��
2023/11/22,16:00,0.516,0.791,0.487,0.982,0.704,0.316,0.567,0.528,�쓌,1.5,��
2023/11/22,16:10,0.517,0.787,0.488,0.982,0.703,0.314,0.565,0.527,�쓌,1.4,��
2023/11/22,16:20,0.514,0.788,0.488,0.981,0.703,0.314,0.566,0.528,�쓌,1.4,��
2023/11/22,16:30,0.516,0.788,0.489,0.983,0.702,0.316,0.564,0.527,��쓌,1.2,��
2023/11/22,16:40,0.516,0.788,0.490,0.982,0.705,0.317,0.566,0.529,��쓌,0.8,��
2023/11/22,16:50,0.518,0.790,0.491,0.984,0.705,0.316,0.565,0.527,-,CALM,��
2023/11/22,17:00,0.518,0.789,0.488,0.983,0.707,0.316,0.565,0.526,��쐼,0.9,��
2023/11/22,17:10,0.519,0.789,0.488,0.984,0.707,0.316,0.565,0.527,��쐼,1.5,��
2023/11/22,17:20,0.516,0.789,0.489,0.982,0.706,0.315,0.565,0.526,�쐼,0.6,��
2023/11/22,17:30,0.519,0.787,0.488,0.984,0.707,0.316,0.565,0.526,��,1.2,��
2023/11/22,17:40,0.519,0.789,0.489,0.983,0.707,0.316,0.565,0.527,��,1.9,��
2023/11/22,17:50,0.520,0.788,0.488,0.986,0.708,0.317,0.565,0.527,��,1.7,��
2023/11/22,18:00,0.519,0.788,0.489,0.985,0.706,0.316,0.565,0.526,��쐼,2.3,��
2023/11/22,18:10,0.518,0.788,0.489,0.985,0.706,0.315,0.564,0.527,��,2.3,��
2023/11/22,18:20,0.518,0.787,0.488,0.984,0.708,0.316,0.566,0.525,��,1.9,��
2023/11/22,18:30,0.519,0.788,0.489,0.983,0.707,0.315,0.564,0.527,��쐼,2.2,��
2023/11/22,18:40,0.519,0.788,0.489,0.981,0.707,0.315,0.566,0.527,��,2.5,��
2023/11/22,18:50,0.518,0.787,0.488,0.985,0.706,0.315,0.565,0.527,��,2.6,��
2023/11/22,19:00,0.517,0.788,0.489,0.985,0.707,0.316,0.566,0.528,��,4.0,��
2023/11/22,19:10,0.519,0.789,0.488,0.984,0.707,0.316,0.565,0.526,��,4.3,��
2023/11/22,19:20,0.520,0.790,0.489,0.984,0.708,0.316,0.565,0.526,��,5.2,��
2023/11/22,19:30,0.518,0.788,0.489,0.983,0.709,0.315,0.565,0.527,��,2.2,��
2023/11/22,19:40,0.519,0.790,0.489,0.982,0.707,0.314,0.566,0.527,��,5.0,��
2023/11/22,19:50,0.518,0.787,0.488,0.983,0.706,0.315,0.565,0.526,��,4.3,��
2023/11/22,20:00,0.519,0.787,0.489,0.984,0.708,0.316,0.564,0.527,��,4.2,��
2023/11/22,20:10,0.518,0.787,0.489,0.984,0.707,0.316,0.566,0.526,��,4.8,��
2023/11/22,20:20,0.518,0.788,0.489,0.985,0.707,0.315,0.565,0.527,��쐼,4.3,��
2023/11/22,20:30,0.519,0.787,0.489,0.984,0.708,0.316,0.564,0.525,��쐼,4.1,��
2023/11/22,20:40,0.518,0.789,0.489,0.984,0.706,0.315,0.564,0.527,��쐼,3.6,��
2023/11/22,20:50,0.518,0.789,0.488,0.985,0.706,0.317,0.564,0.527,��쐼,3.7,��
2023/11/22,21:00,0.519,0.789,0.490,0.983,0.706,0.314,0.566,0.527,��쐼,3.0,��
2023/11/22,21:10,0.518,0.785,0.490,0.987,0.706,0.316,0.565,0.525,�쐼,2.5,��
2023/11/22,21:20,0.517,0.786,0.489,0.983,0.706,0.315,0.566,0.526,�쐼,2.0,��
2023/11/22,21:30,0.518,0.787,0.490,0.985,0.707,0.316,0.565,0.527,��,2.6,��
2023/11/22,21:40,0.518,0.788,0.489,0.983,0.705,0.317,0.564,0.526,��,1.7,��
2023/11/22,21:50,0.518,0.787,0.489,0.983,0.707,0.316,0.566,0.527,��쓌,1.4,��
2023/11/22,22:00,0.519,0.786,0.489,0.985,0.707,0.316,0.564,0.526,��,1.5,��
2023/11/22,22:10,0.518,0.788,0.487,0.982,0.705,0.318,0.564,0.525,��,1.7,��
2023/11/22,22:20,0.519,0.787,0.490,0.983,0.707,0.315,0.564,0.526,��,1.4,��
2023/11/22,22:30,0.520,0.787,0.489,0.986,0.708,0.316,0.563,0.526,��쓌,2.0,��
2023/11/22,22:40,0.518,0.786,0.489,0.984,0.707,0.316,0.564,0.526,��,2.5,��
2023/11/22,22:50,0.518,0.787,0.489,0.981,0.707,0.317,0.564,0.527,��쐼,1.5,��
2023/11/22,23:00,0.517,0.788,0.489,0.984,0.705,0.317,0.563,0.526,��,1.2,��
2023/11/22,23:10,0.517,0.788,0.490,0.985,0.707,0.317,0.564,0.528,�쐼,0.6,��
2023/11/22,23:20,0.516,0.785,0.488,0.984,0.707,0.315,0.566,0.525,���쐼,1.2,��
2023/11/22,23:30,0.517,0.787,0.487,0.981,0.705,0.315,0.564,0.527,��,2.5,��
2023/11/22,23:40,0.519,0.785,0.489,0.981,0.706,0.316,0.565,0.527,���쐼,2.6,��
2023/11/22,23:50,0.518,0.786,0.489,0.982,0.705,0.315,0.564,0.527,�쐼,1.7,��
